This demonstration page uses our WeatherBlox Daily Observations layout. Learn more.

Left ArrowRight Arrow

39.01783, -85.05884

Hourly Observations for March 21, 2018

Temp ( °F °C ) Dew Point ( °F °C ) Humidity (%) Winds ( mph kmh ) Pressure ( in mb ) Visibility ( mi km ) Precip ( " mm )
12:52 am 00:52 Cloudy with Light Snow 31 -0.6 30 -1.1 96 96 N 14 22 29.68 1005 2 2 0.03 0.76
1:20 am 01:20 Cloudy with Light Snow 30 -1.1 30 -1.1 100 100 N 14 22 29.71 1006 1 1 0.01 0.25
1:32 am 01:32 Mostly Cloudy with Freezing Fog 30 -1.1 30 -1.1 100 100 N 15 24 29.71 1006 1 1 0.03 0.76
1:52 am 01:52 Mostly Cloudy with Mist and Fog 30 -1.1 30 -1.1 100 100 NNW 15 24 29.67 1005 1 1 0.06 1.52
2:30 am 02:30 Cloudy with Light Snow 30 -1.1 30 -1.1 100 100 NNW 14 22 29.68 1005 2 2 0.02 0.51
2:52 am 02:52 Cloudy with Light Snow 30 -1.1 30 -1.1 100 100 NNW 15 24 29.67 1005 3 5 0.02 0.51
3:20 am 03:20 Cloudy with Light Snow 30 -1.1 30 -1.1 100 100 NNW 16 26 29.68 1005 2 2 N/A
3:52 am 03:52 Cloudy with Light Snow 30 -1.1 30 -1.1 100 100 NNW 15 24 29.67 1005 2 2 0.01 0.25
4:52 am 04:52 Cloudy with Light Snow 30 -1.1 29 -1.7 96 96 NNW 18 30 29.67 1005 2 2 0.02 0.51
5:52 am 05:52 Windy with Snow Likely 29 -1.7 28 -2.2 96 96 NNW 21 33 29.69 1005 2 2 0.01 0.25
6:14 am 06:14 Cloudy with Light Snow 29 -1.7 28 -2.2 96 96 NW 18 30 29.71 1006 1 2 N/A
6:52 am 06:52 Windy with Snow Likely 28 -2.2 28 -2.2 100 100 NNW 20 31 29.71 1006 2 2 0.01 0.25
7:16 am 07:16 Windy with Snow Likely 28 -2.2 27 -2.8 96 96 NNW 20 31 29.74 1007 2 2 N/A
7:19 am 07:19 Windy with Snow Likely 28 -2.2 27 -2.8 96 96 NNW 20 31 29.74 1007 3 5 N/A
7:33 am 07:33 Cloudy with Light Snow 28 -2.2 27 -2.8 96 96 NNW 18 30 29.74 1007 2 2 N/A
7:52 am 07:52 Cloudy with Light Snow 28 -2.2 27 -2.8 96 96 NNW 17 28 29.74 1007 2 2 0.01 0.25
7:54 am 07:54 Windy with Snow Likely 28 -2.2 27 -2.8 96 96 NNW 20 31 29.80 1009 3 5 N/A
8:05 am 08:05 Cloudy with Light Snow 28 -2.2 27 -2.8 96 96 NNW 18 30 29.80 1009 3 4 N/A
8:19 am 08:19 Cloudy with Light Snow 28 -2.2 27 -2.8 96 96 NNW 17 28 29.80 1009 2 3 N/A
8:52 am 08:52 Cloudy with Light Snow 28 -2.2 27 -2.8 96 96 NNW 17 28 29.77 1008 2 3 N/A
9:45 am 09:45 Cloudy with Light Snow 28 -2.2 26 -3.3 92 92 NNW 18 30 29.83 1010 4 6 0.01 0.25
9:52 am 09:52 Cloudy with Light Snow 28 -2.2 27 -2.8 96 96 NNW 17 28 29.80 1009 4 6 0.01 0.25
10:52 am 10:52 Windy with Snow Likely 29 -1.7 27 -2.8 92 92 NNW 20 31 29.83 1010 4 6 N/A
11:06 am 11:06 Cloudy with Light Snow 29 -1.7 27 -2.8 92 92 NNW 15 24 29.88 1012 2 3 N/A
11:26 am 11:26 Cloudy with Light Snow 29 -1.7 27 -2.8 92 92 NNW 15 24 29.88 1012 2 2 N/A
11:52 am 11:52 Cloudy with Light Snow 30 -1.1 28 -2.2 92 92 NNW 17 28 29.86 1011 2 3 0.01 0.25
12:35 pm 12:35 Cloudy with Light Snow 30 -1.1 28 -2.2 92 92 NNW 16 26 29.94 1014 2 3 N/A
12:52 pm 12:52 Cloudy with Light Snow 30 -1.1 28 -2.2 92 92 NNW 15 24 29.90 1012 6 10 0.01 0.25
1:52 pm 13:52 Cloudy with Light Snow 31 -0.6 27 -2.8 85 85 NNW 15 24 29.93 1014 7 11 N/A
1:59 pm 13:59 Cloudy with Light Snow 31 -0.6 28 -2.2 89 89 NNW 17 28 29.97 1015 7 11 N/A
2:52 pm 14:52 Cloudy with Light Snow 31 -0.6 28 -2.2 89 89 NNW 15 24 29.96 1014 4 6 N/A
3:52 pm 15:52 Cloudy 32 undefined 27 -2.8 82 82 NNW 18 30 29.98 1015 10 16 N/A
4:52 pm 16:52 Cloudy 33 0.6 26 -3.3 75 75 NNW 21 33 30.01 1016 10 16 N/A
5:18 pm 17:18 Cloudy with Light Snow 34 1.1 26 -3.3 73 73 NNW 16 26 30.03 1017 9 14 N/A
5:52 pm 17:52 Cloudy with Light Snow 34 1.1 27 -2.8 76 76 NW 13 20 30.05 1018 9 14 N/A
6:52 pm 18:52 Cloudy 34 1.1 28 -2.2 79 79 WNW 9 15 30.08 1019 10 16 N/A
7:52 pm 19:52 Cloudy 33 0.6 28 -2.2 82 82 W 8 13 30.10 1019 10 16 N/A
8:52 pm 20:52 Cloudy 32 undefined 29 -1.7 88 88 W 6 9 30.12 1020 10 16 N/A
9:52 pm 21:52 Cloudy 32 undefined 28 -2.2 85 85 W 6 9 30.15 1021 10 16 N/A
10:52 pm 22:52 Mostly Cloudy 32 undefined 28 -2.2 85 85 WSW 5 7 30.16 1021 10 16 N/A
11:52 pm 23:52 Partly Cloudy 31 -0.6 27 -2.8 85 85 WSW 5 7 30.16 1021 10 16 N/A

Powered by AerisWeather